TimeMST,TemperatureF,Dew PointF,Humidity,Sea Level PressureIn,VisibilityMPH,Wind Direction,Wind SpeedMPH,Gust SpeedMPH,PrecipitationIn,Events,Conditions,WindDirDegrees,DateUTC
12:40 AM,12.2,10.4,92,30.10,10.0,Calm,Calm,-,0.00,,Overcast,0,2012-12-11 07:40:00
12:53 AM,12.9,10.0,88,30.27,10.0,Calm,Calm,-,0.00,,Overcast,0,2012-12-11 07:53:00
1:00 AM,12.2,10.4,92,30.09,10.0,ESE,5.8,-,N/A,,Overcast,110,2012-12-11 08:00:00
1:53 AM,15.1,10.9,84,30.26,10.0,SSE,3.5,-,N/A,,Overcast,160,2012-12-11 08:53:00
2:17 AM,14.0,10.4,86,30.10,10.0,Calm,Calm,-,N/A,,Overcast,0,2012-12-11 09:17:00
2:53 AM,15.1,10.9,84,30.27,7.0,ENE,3.5,-,0.00,Snow,Light Snow,60,2012-12-11 09:53:00
3:09 AM,15.8,10.4,79,30.10,2.0,East,4.6,-,0.00,Snow,Light Snow,80,2012-12-11 10:09:00
3:23 AM,14.0,10.4,86,30.10,4.0,Calm,Calm,-,0.00,Snow,Light Snow,0,2012-12-11 10:23:00
3:38 AM,14.0,10.4,86,30.10,7.0,Calm,Calm,-,0.00,,Overcast,0,2012-12-11 10:38:00
3:53 AM,12.9,10.0,88,30.27,9.0,Calm,Calm,-,0.00,Snow,Light Snow,0,2012-12-11 10:53:00
4:53 AM,12.0,9.0,88,30.27,5.0,Calm,Calm,-,0.00,Snow,Light Snow,0,2012-12-11 11:53:00
5:09 AM,10.4,8.6,92,30.10,9.0,SSE,3.5,-,0.00,,Scattered Clouds,150,2012-12-11 12:09:00
5:53 AM,7.0,3.0,84,30.29,6.0,SE,4.6,-,0.00,,Mostly Cloudy,130,2012-12-11 12:53:00
6:53 AM,9.0,5.0,84,30.31,10.0,Calm,Calm,-,N/A,,Overcast,0,2012-12-11 13:53:00
7:53 AM,9.0,5.0,84,30.33,6.0,East,3.5,-,0.00,,Overcast,100,2012-12-11 14:53:00
8:53 AM,12.0,8.1,84,30.33,10.0,Calm,Calm,-,N/A,,Overcast,0,2012-12-11 15:53:00
9:53 AM,15.1,10.0,80,30.33,10.0,Calm,Calm,-,N/A,,Overcast,0,2012-12-11 16:53:00
10:53 AM,19.0,12.0,74,30.31,10.0,Calm,Calm,-,N/A,,Overcast,0,2012-12-11 17:53:00
11:53 AM,21.9,14.0,72,30.27,10.0,NE,3.5,-,N/A,,Scattered Clouds,40,2012-12-11 18:53:00
12:53 PM,23.0,15.1,72,30.25,10.0,Calm,Calm,-,N/A,,Clear,0,2012-12-11 19:53:00
1:53 PM,25.0,17.1,72,30.22,10.0,Calm,Calm,-,N/A,,Clear,0,2012-12-11 20:53:00
2:53 PM,26.1,17.1,69,30.18,10.0,Calm,Calm,-,N/A,,Clear,0,2012-12-11 21:53:00
3:53 PM,26.1,17.1,69,30.17,10.0,Calm,Calm,-,N/A,,Clear,0,2012-12-11 22:53:00
4:53 PM,21.0,15.1,78,30.21,10.0,Calm,Calm,-,N/A,,Partly Cloudy,0,2012-12-11 23:53:00
5:53 PM,19.9,14.0,78,30.23,10.0,Calm,Calm,-,N/A,,Scattered Clouds,0,2012-12-12 00:53:00
6:53 PM,19.9,14.0,78,30.22,10.0,SSE,3.5,-,N/A,,Overcast,150,2012-12-12 01:53:00
7:53 PM,21.9,16.0,78,30.21,10.0,Calm,Calm,-,N/A,,Overcast,0,2012-12-12 02:53:00
8:53 PM,21.9,16.0,78,30.20,10.0,Calm,Calm,-,N/A,,Overcast,0,2012-12-12 03:53:00
9:53 PM,17.1,12.0,81,30.20,10.0,Calm,Calm,-,N/A,,Clear,0,2012-12-12 04:53:00
10:53 PM,14.0,10.0,84,30.20,10.0,Variable,3.5,-,N/A,,Partly Cloudy,0,2012-12-12 05:53:00
11:53 PM,14.0,10.0,84,30.19,10.0,Calm,Calm,-,N/A,,Clear,0,2012-12-12 06:53:00